Regional Weather Roundup
Issued by NWS

Home | Current Version | Previous Version | Graphics & Text | Print | Product List | Glossary On
Versions: 1 2 3 4 5 6 7 8 9 10 11 12 13 14 15 16 17 18 19 20 21 22 23 24 25 26 27 28 29 30 31 32 33 34 35 36 37 38 39 40 41 42 43 44 45 46 47 48 49 50
000
ASUS43 KLMK 241602
RWRKY
KENTUCKY REGIONAL WEATHER ROUNDUP
NATIONAL WEATHER SERVICE LOUISVILLE KY
1200 PM EDT THU APR 24 2014

NOTE "FAIR" INDICATES FEW OR NO CLOUDS BELOW 12,000 FEET
WITH NO SIGNIFICANT WEATHER AND/OR OBSTRUCTIONS TO VISIBILITY.

KYZ001>023-026-027-061>063-070>075-241700-
WESTERN AND SOUTH CENTRAL KENTUCKY

CITY           SKY/WX    TMP DP  RH WIND       PRES   REMARKS
PADUCAH        MOSUNNY   73  43  33 SE13      29.88F
HENDERSON      SUNNY     64  41  42 SE8       29.93F
OWENSBORO      SUNNY     65  40  39 SE10      29.95F
HOPKINSVILLE   MOSUNNY   69  40  34 SE6       29.93F
BOWLING GREEN  MOSUNNY   67  37  33 S5        29.98F
GLASGOW        NOT AVBL
$$

KYZ024-025-028>034-038-045-046-053-241700-
NORTH CENTRAL KENTUCKY

CITY           SKY/WX    TMP DP  RH WIND       PRES   REMARKS
LOUISVILLE/SDF PTSUNNY   63  38  39 SE17      30.01F
LOUISVILLE/LOU PTSUNNY   62  36  37 E10       30.03F
FORT KNOX      PTSUNNY   61  37  40 E9        29.99F
$$

KYZ035>037-039>044-047>052-055>060-089>105-241700-
NORTHEAST KENTUCKY

CITY           SKY/WX    TMP DP  RH WIND       PRES   REMARKS
LEXINGTON      PTSUNNY   61  38  42 SE10      30.06F
COVINGTON      PTSUNNY   57  28  33 E12G20    30.08F
FRANKFORT      PTSUNNY   56  39  53 E10       30.05F
$$

KYZ054-064>069-076>088-106>120-241700-
SOUTHEAST KENTUCKY

CITY           SKY/WX    TMP DP  RH WIND       PRES   REMARKS
JACKSON        PTSUNNY   60  34  37 VRB5      30.07F
LONDON         MOSUNNY   62  35  36 VRB3      30.04F
SOMERSET       NOT AVBL
MIDDLESBORO    NOT AVBL
MONTICELLO     SUNNY     67  39  35 S6        30.03F
$$




USA.gov is the U.S. government's official web portal to all federal, state and local government web resources and services.